Location: Tafessasset
(32.5899°N, 5.4824°W)
Time: 16:23:56
(UTC+00:00)

Atlas Centaur 2 - Pass Details

Date: 18 February 2020
Orbit: 459 x 1310 km, 30.4° (Epoch: 03 April)

Event Time Altitude Azimuth Distance (km) Brightness Sun altitude
Rises 06:26:32 0° 236° (SW) 4,226 5.4 -8.3°
Reaches altitude 10° 06:29:33 10° 231° (SW) 3,298 4.9 -7.6°
Maximum altitude 06:37:38 49° 160° (SSE) 1,628 4.0 -6.0°
Drops below altitude 10° 06:45:21 10° 88° (E) 3,152 6.9 -4.4°
Sets 06:48:10 0° 83° (E) 4,027 7.4 -3.8°
